www.pogodaiklimat.ru

Погода и климат >> Архив погоды >> Гана >> Тамале


ПОГОДА в Тамале

  • Прогноз погоды в Тамале
  • Монитор погоды в Тамале

АРХИВ ПОГОДЫ в Тамале

Время (UTC), дата Ветер
(напр.,м/с)
 
Видим.   Явления Облачность Т
(С)
Тd
(С)
f
(%)
Тe
(С)
Тes
(С)
Комфортность P
(гПа)
Po
(гПа)
Тmin
(С)
Tmax
(С)
R
(мм)
R24
(мм)
S
(см)
15 19.03 СЗ 4 10 км 6/6 480 м
[Cu med, cong]
+39.6 +21.4 35 +46 +50 опасность
перегрева
1003.6 984.8
18 19.03 ЮЗ 2 10 км 5/3 420 м
[Cb cap Ci sp]
+38.3 +21.1 37 +45 +45 опасность
перегрева
1003.5 984.6 +40.1
21 19.03 СЗ 4 10 км 9/1 360 м
[Sc Cs]
+35.2 +20.8 43 +42 +42 опасность
перегрева
1006.6 987.5
00 20.03 ЮЗ 8 10 км гроза без осадков 9/4 360 м
[Cb cap Ac trans Cs]
+34.1 +20.9 46 +41 +41 опасность
перегрева
1007.9 988.7
06 20.03 Ю 4 10 км {гроза} 8/3 360 м
[Sc Ac trans Ci sp]
+30.2 +22.8 65 +40 +40 очень
душно
1007.8 988.3 +30.2
12 20.03 Ю 5 10 км ясно +35.0 +21.3 45 +43 +54 опасность
перегрева
1007.9 988.7
15 20.03 Ю 5 10 км ясно +38.5 +21.8 38 +46 +52 опасность
перегрева
1003.6 984.7
18 20.03 Ю 3 10 км ясно +37.0 +20.8 39 +44 +44 опасность
перегрева
1003.7 984.7 +39.0
21 20.03 Ю 3 13 км ясно +34.0 +23.3 54 +45 +45 опасность
перегрева
1006.8 987.6
06 21.03 Ю 5 10 км ясно +28.5 +22.5 70 +37 +37 очень
душно
1006.3 986.8 +28.5
09 21.03 ЮЗ 4 12 км 9/4 360 м
[Sc Ac trans]
+31.3 +22.9 61 +41 +44 опасность
перегрева
1010.4 991.0
12 21.03 З 5 12 км 10/0
[Ac trans Cs]
+36.4 +22.5 45 +46 +52 опасность
перегрева
1008.0 988.9
15 21.03 ЮЗ 4 15 км 8/4 450 м
[Cu med, cong Ac trans]
+38.1 +22.7 41 +47 +50 опасность
перегрева
1004.0 985.1
18 21.03 ЮЗ 3 15 км 6/0
[Ac trans]
+37.3 +21.4 40 +45 +45 опасность
перегрева
1003.1 984.2 +39.2
21 21.03 ЮЗ 5 12 км 8/0
[Ac trans]
+34.6 +22.2 49 +44 +44 опасность
перегрева
1006.0 986.9
06 22.03 Ю 3 12 км 6/0
[Ac trans Ci sp]
+28.5 +21.4 65 +36 +36 очень
душно
1008.1 988.5 +28.5
09 22.03 0 н/о +22.4 1009.9
15 22.03 ЮЗ 3 18 км 6/1 480 м
[Cu med, cong Cs]
+39.6 +19.4 31 +44 +52 опасность
перегрева
1004.8 986.0
21 22.03 ЮЗ 1 13 км 8/0
[Ac trans Cs]
+34.4 +22.3 49 +43 +43 опасность
перегрева
1007.4 988.2
03 23.03 ЮЗ 2 16 км 4/0
[Ac trans Ci sp]
+30.0 +23.3 67 +40 +40 очень
душно
1007.2 987.7
06 23.03 ЮЗ 2 16 км 9/0
[Ac trans]
+29.0 +23.0 70 +39 +39 очень
душно
1008.3 988.8 +29.0
12 23.03 ЮЗ 4 16 км 6/0
[Ac trans Ci sp]
+37.0 +22.5 43 +46 +56 опасность
перегрева
1009.0 989.9
18 23.03 СВ 3 16 км 8/0
[Ac trans Ci sp]
+39.5 +18.5 30 +43 +43 опасность
перегрева
1004.9 986.1 +41.0
21 23.03 Ю 2 12 км 6/0
[Ac trans]
+36.0 +22.2 45 +45 +45 опасность
перегрева
1007.8 988.7
00 24.03 Ю 2 12 км 6/0
[Ac trans]
+33.0 +23.5 58 +44 +44 опасность
перегрева
1008.3 989.0
06 24.03 ЮЗ 3 12 км 8/3 360 м
[Sc Ac trans]
+29.5 +23.1 69 +40 +40 очень
душно
1007.6 988.1 +29.5
15 24.03 ЮВ 2 16 км 1/0
[Ci sp]
+40.6 +21.5 34 +48 +60 опасность
перегрева
1004.5 985.7
18 24.03 Ю 1 16 км 4/1 300 м
[Cu med, cong Ac trans]
+39.4 +19.0 31 +44 +44 опасность
перегрева
1005.2 986.4 +41.0
21 24.03 ЮВ 3 14 км 4/0
[Ci sp]
+36.2 +19.4 37 +41 +41 опасность
перегрева
1007.8 988.7
03 25.03 ЮЗ 1 14 км 5/0
[Ci sp]
+31.0 +21.6 57 +39 +39 очень
душно
1007.5 988.1
06 25.03 Ю 2 14 км 6/0
[Cs]
+29.0 +19.8 58 +35 +35 очень
душно
1008.6 989.1 +29.0
15 25.03 Ю 4 16 км 9/6 480 м
[Cb cap Cs]
+39.5 +21.5 36 +47 +49 опасность
перегрева
1005.0 986.2
18 25.03 Ю 3 16 км 9/3 330 м
[Cb cap Ac trans Cs]
+37.4 +20.8 38 +44 +44 опасность
перегрева
1005.5 986.5 +40.4
21 25.03 ЮЗ 5 12 км 9/0
[Ac trans Cs]
+32.7 +21.7 52 +41 +41 опасность
перегрева
1008.7 989.4
00 26.03 Ю 5 12 км 8/0
[Ac trans Ci sp]
+31.0 +21.7 58 +39 +39 очень
душно
1009.6 990.2
03 26.03 Ю 4 12 км 9/0
[Ac trans]
+30.1 +21.9 62 +39 +39 очень
душно
1008.9 989.4
06 26.03 Ю 3 10 км 6/0
[Ac trans Ci sp]
+29.0 +22.1 66 +37 +37 очень
душно
1009.3 989.7 +29.0
09 26.03 Ю 4 12 км 3/0
[Ci sp]
+33.0 +23.5 58 +44 +51 опасность
перегрева
1009.8 990.5

 

Местоположение метеостанции Тамале (Гана): широта 9.50 долгота -0.85 высота над уровнем моря 173 м.

В архиве по умолчанию представлена погода в Тамале за последнюю неделю. Архивные данные за месяц целиком и за предыдущие месяцы, начиная с января 2011 года, Вы можете получить, выбрав интересующий диапазон дат из раскрывающегося списка и нажав кнопку "Ввод!".


*Определитесь, кто Вы:
робот инопланетянин человек

Внимание! Время в таблицах - всемирное. Для получения местного времени необходимо прибавить поправку, которая равна 1 ч.

Смотрите также архив погоды в соседних городах и на ближайших метеорологических станциях:

Погода в Йенди (Гана) (91 км)
Погода в Навронго (Гана) (158 км)
Погода в Манго (Того) (174 км)
Погода в Боле (Гана) (186 км)
Погода в По (Буркина-Фасо) (186 км)
Погода в Ва (Гана) (191 км)
Погода в Дапаоне (Того) (201 км)
Погода в Кет-Крачи (Гана) (207 км)
Погода в Ньамтугу (Того) (216 км)
Погода в Каре (Того) (222 км)

Пояснения к столбцам:

Ветер - указаны скорость ветра в м/с - средняя за 10 мин, порывы в срок и между сроками (в фигурных скобках) и направление, откуда дует ветер: С - северный, СВ - северо-восточный, В - восточный, ЮВ - юго-восточный, Ю - южный, ЮЗ - юго-западный, З - западный, СЗ - северо-западный.
Видимость - горизонтальная дальность видимости в метрах или километрах. При видимости от 1 до 10 км при отсутствии осадков обычно наблюдается дымка, при ухудшении видимости до 1 км и менее - туман. В сухую погоду видимость может ухудшаться дымом, пылью или мглою.
Явления - указаны атмосферные явления, наблюдавшиеся в срок или в последний час перед сроком; фигурными скобками обозначены явления, наблюдавшиеся между сроками (за 1-3 часа до срока); квадратными скобками обозначены град или гололедные отложения с указанием их диаметра в мм.
Облачность - указаны через наклонную черту общая и нижняя облачность в баллах и высота нижней границы облаков в метрах; квадратными скобками обозначены формы облаков: Ci - перистые, Cs - перисто-слоистые, Cc - перисто-кучевые, Ac - высококучевые, As - высокослоистые, Sc - слоисто-кучевые, Ns - слоисто-дождевые, Cu - кучевые, Cb - кучево-дождевые. Подробнее классификацию облаков см. в Атласе облаков (PDF).
T - Температура воздуха - температура, измеренная на высоте 2 м над землей.
Td - Температура точки росы - температура, при понижении до которой содержащийся в воздухе водяной пар достигнет насыщения.
f - Относительная влажность воздуха - влажноcть воздуха, измеренная на высоте 2 м над землей.
Te - Эффективная температура - температура, которую ощущает одетый по сезону человек в тени. Характеристика душности погоды. При расчете учитывается влияние влажности воздуха и скорости ветра на теплоощущения человека.
Tes - Эффективная температура на солнце - температура, которую ощущает человек, с поправкой на солнечный нагрев. Характеристика знойности погоды. Зависит от высоты солнца над горизонтом, облачности и скорости ветра. Ночью, в пасмурную погоду, а также при ветре 12 м/с и более поправка равна нулю.
P - Атмосферное давление - приведенное к уровню моря атмосферное давление.
Po - Атмосферное давление - измеренное на уровне метеостанции атмосферное давление.
Tmin - Минимальная температура - минимум температуры воздуха на высоте 2 м над землей.
Tmax - Максимальная температура - максимум температуры воздуха на высоте 2 м над землей.
R - Количество осадков - Количество выпавших осадков за период времени, мм. При наведении курсора мыши на число - период времени, за который выпало указанное количество осадков.
R24 - Количество осадков - Количество выпавших осадков за 24 часа, мм.
S - Снежный покров - Высота снежного покрова, см. При наведении курсора мыши на число - состояние снежного покрова и степень покрытия местности в баллах.